| time (UTC) | temp F | wind direction | speed knots | gust knots | rain 1hr in | rain 24hr in | rain mn in | humidity % | barometer mb |
| 20260506201533 | 57 | 191 | 4.3 | 9.6 | 0.00 | 0.05 | 0.05 | 95 | 1007.3 |
| 20260506200030 | 57 | 178 | 1.7 | 9.6 | 0.00 | 0.05 | 0.05 | 95 | 1007.6 |
| 20260506194529 | 57 | 209 | 3.5 | 13.9 | 0.01 | 0.05 | 0.05 | 95 | 1007.7 |
| 20260506193027 | 57 | 124 | 1.7 | 9.6 | 0.03 | 0.05 | 0.05 | 94 | 1007.8 |
| 20260506191526 | 57 | 186 | 5.2 | 11.3 | 0.04 | 0.05 | 0.05 | 93 | 1008.1 |
| 20260506190026 | 57 | 169 | 2.6 | 8.7 | 0.04 | 0.05 | 0.05 | 93 | 1008.0 |
| 20260506184523 | 58 | 141 | 0.9 | 8.7 | 0.04 | 0.04 | 0.04 | 92 | 1008.3 |
| 20260506183022 | 58 | 56 | 0.9 | 7.8 | 0.02 | 0.02 | 0.02 | 91 | 1008.0 |
| 20260506181522 | 59 | 78 | 1.7 | 10.4 | 0.01 | 0.01 | 0.01 | 89 | 1008.4 |
| 20260506180018 | 59 | 150 | 1.7 | 7.0 | 0.01 | 0.01 | 0.01 | 87 | 1008.8 |
| 20260506174517 | 60 | 151 | 1.7 | 12.2 | 0.00 | 0.00 | 0.00 | 85 | 1009.1 |
| 20260506173015 | 61 | 163 | 2.6 | 12.2 | 0.00 | 0.00 | 0.00 | 83 | 1009.2 |
| 20260506171519 | 61 | 133 | 4.3 | 12.2 | 0.00 | 0.00 | 0.00 | 80 | 1009.3 |
| 20260506170012 | 62 | 192 | 6.1 | 12.2 | 0.00 | 0.00 | 0.00 | 80 | 1009.6 |
| 20260506164511 | 63 | 188 | 4.3 | 17.4 | 0.00 | 0.00 | 0.00 | 79 | 1009.6 |
| 20260506163011 | 64 | 97 | 2.6 | 15.6 | 0.00 | 0.00 | 0.00 | 78 | 1009.6 |
| 20260506161511 | 64 | 185 | 5.2 | 16.5 | 0.00 | 0.00 | 0.00 | 78 | 1009.8 |
| 20260506160013 | 64 | 115 | 4.3 | 14.8 | 0.00 | 0.00 | 0.00 | 77 | 1010.0 |
| 20260506154508 | 65 | 107 | 2.6 | 12.2 | 0.00 | 0.00 | 0.00 | 75 | 1009.9 |
| 20260506153010 | 66 | 132 | 1.7 | 11.3 | 0.00 | 0.00 | 0.00 | 74 | 1009.8 |
| 20260506151507 | 66 | 194 | 3.5 | 12.2 | 0.00 | 0.00 | 0.00 | 73 | 1009.8 |
| 20260506150005 | 67 | 221 | 4.3 | 10.4 | 0.00 | 0.00 | 0.00 | 73 | 1010.0 |
| 20260506144507 | 67 | 119 | 4.3 | 9.6 | 0.00 | 0.00 | 0.00 | 74 | 1010.1 |
| 20260506143004 | 66 | 169 | 2.6 | 11.3 | 0.00 | 0.00 | 0.00 | 74 | 1010.1 |
| 20260506141559 | 65 | 161 | 2.6 | 12.2 | 0.00 | 0.00 | 0.00 | 76 | 1010.3 |
| 20260506140057 | 64 | 148 | 2.6 | 13.9 | 0.00 | 0.00 | 0.00 | 77 | 1010.2 |
| 20260506134600 | 64 | 144 | 5.2 | 14.8 | 0.00 | 0.00 | 0.00 | 77 | 1010.2 |
| 20260506133059 | 64 | 142 | 4.3 | 9.6 | 0.00 | 0.00 | 0.00 | 78 | 1009.9 |
| 20260506131551 | 63 | 206 | 4.3 | 11.3 | 0.00 | 0.00 | 0.00 | 80 | 1010.1 |
| 20260506130051 | 63 | 245 | 2.6 | 10.4 | 0.00 | 0.00 | 0.00 | 81 | 1010.3 |
| 20260506124547 | 63 | 69 | 3.5 | 10.4 | 0.00 | 0.00 | 0.00 | 83 | 1010.7 |
| 20260506123043 | 60 | 96 | 2.6 | 9.6 | 0.00 | 0.00 | 0.00 | 87 | 1010.7 |
| 20260506121542 | 59 | 198 | 2.6 | 12.2 | 0.00 | 0.00 | 0.00 | 88 | 1010.8 |
| 20260506120043 | 59 | 172 | 3.5 | 11.3 | 0.00 | 0.00 | 0.00 | 88 | 1010.7 |
| 20260506114540 | 58 | 136 | 6.1 | 14.8 | 0.00 | 0.00 | 0.00 | 89 | 1010.7 |
| 20260506113039 | 58 | 163 | 2.6 | 11.3 | 0.00 | 0.00 | 0.00 | 91 | 1010.8 |
| 20260506111537 | 57 | 200 | 4.3 | 14.8 | 0.00 | 0.00 | 0.00 | 92 | 1010.9 |
| 20260506110039 | 57 | 160 | 3.5 | 12.2 | 0.00 | 0.00 | 0.00 | 92 | 1010.8 |
| 20260506104535 | 56 | 116 | 1.7 | 8.7 | 0.00 | 0.00 | 0.00 | 92 | 1010.8 |
| 20260506103034 | 56 | 166 | 4.3 | 10.4 | 0.00 | 0.00 | 0.00 | 92 | 1010.7 |
| 20260506101532 | 56 | 135 | 4.3 | 8.7 | 0.00 | 0.00 | 0.00 | 92 | 1010.6 |
| 20260506100031 | 56 | 153 | 3.5 | 10.4 | 0.00 | 0.00 | 0.00 | 91 | 1010.6 |
| 20260506094529 | 56 | 191 | 1.7 | 8.7 | 0.00 | 0.00 | 0.00 | 91 | 1010.6 |
| 20260506093034 | 56 | 136 | 0.0 | 8.7 | 0.00 | 0.00 | 0.00 | 90 | 1010.7 |
| 20260506091527 | 56 | 180 | 4.3 | 10.4 | 0.00 | 0.00 | 0.00 | 90 | 1010.8 |
| 20260506090026 | 56 | 202 | 5.2 | 10.4 | 0.00 | 0.00 | 0.00 | 90 | 1010.9 |
| 20260506084532 | 56 | 115 | 4.3 | 9.6 | 0.00 | 0.00 | 0.00 | 89 | 1010.8 |
| 20260506083020 | 56 | 209 | 2.6 | 13.0 | 0.00 | 0.00 | 0.00 | 89 | 1010.8 |
| 20260506081518 | 56 | 182 | 3.5 | 10.4 | 0.00 | 0.00 | 0.00 | 89 | 1010.9 |
| 20260506073011 | 57 | 129 | 2.6 | 8.7 | 0.00 | 0.00 | 0.00 | 87 | 1010.8 |
| 20260506071509 | 57 | 136 | 2.6 | 14.8 | 0.00 | 0.00 | 0.00 | 87 | 1010.9 |
| 20260506061501 | 58 | 138 | 5.2 | 12.2 | 0.00 | 0.00 | 0.00 | 85 | 1010.9 |
| 20260506044550 | 59 | 168 | 4.3 | 10.4 | 0.00 | 0.00 | 0.00 | 82 | 1011.6 |
| 20260506043042 | 59 | 197 | 4.3 | 11.3 | 0.00 | 0.00 | 0.00 | 81 | 1011.7 |
| 20260506041549 | 60 | 188 | 5.2 | 12.2 | 0.00 | 0.00 | 0.00 | 80 | 1011.5 |
| 20260506040039 | 60 | 207 | 2.6 | 13.9 | 0.00 | 0.00 | 0.00 | 79 | 1011.5 |
| 20260506034533 | 60 | 198 | 4.3 | 13.9 | 0.00 | 0.00 | 0.00 | 78 | 1011.6 |
| 20260506033030 | 61 | 226 | 2.6 | 10.4 | 0.00 | 0.00 | 0.00 | 76 | 1011.4 |
| 20260506031530 | 61 | 153 | 5.2 | 20.0 | 0.00 | 0.00 | 0.00 | 74 | 1011.3 |
| 20260506030028 | 61 | 158 | 5.2 | 13.0 | 0.00 | 0.00 | 0.00 | 73 | 1011.3 |
| 20260506024527 | 61 | 157 | 4.3 | 12.2 | 0.00 | 0.00 | 0.00 | 74 | 1011.3 |
| 20260506023025 | 61 | 181 | 5.2 | 12.2 | 0.00 | 0.00 | 0.00 | 73 | 1011.2 |
| 20260506021525 | 61 | 192 | 2.6 | 10.4 | 0.00 | 0.00 | 0.00 | 74 | 1011.2 |
| 20260506020022 | 61 | 146 | 5.2 | 8.7 | 0.00 | 0.00 | 0.00 | 75 | 1011.2 |
| 20260506014521 | 60 | 123 | 2.6 | 9.6 | 0.00 | 0.00 | 0.00 | 74 | 1011.2 |
| 20260506013018 | 61 | 164 | 3.5 | 13.0 | 0.00 | 0.00 | 0.00 | 74 | 1011.1 |
| 20260506011535 | 61 | 196 | 3.5 | 16.5 | 0.00 | 0.00 | 0.00 | 74 | 1010.9 |
| 20260506010014 | 61 | 220 | 2.6 | 10.4 | 0.00 | 0.00 | 0.00 | 73 | 1010.7 |
| 20260506004525 | 61 | 133 | 2.6 | 11.3 | 0.00 | 0.00 | 0.00 | 73 | 1010.6 |
| 20260506003009 | 61 | 173 | 3.5 | 11.3 | 0.00 | 0.00 | 0.00 | 72 | 1010.4 |
| 20260506001507 | 61 | 153 | 3.5 | 9.6 | 0.00 | 0.00 | 0.00 | 71 | 1010.2 |
| 20260506000004 | 62 | 176 | 3.5 | 16.5 | 0.00 | 0.00 | 0.00 | 70 | 1009.9 |
| 20260505234601 | 63 | 209 | 5.2 | 15.6 | 0.00 | 0.00 | 0.00 | 69 | 1009.8 |
| 20260505233057 | 63 | 186 | 7.0 | 15.6 | 0.00 | 0.00 | 0.00 | 68 | 1009.4 |
| 20260505231555 | 64 | 236 | 2.6 | 17.4 | 0.00 | 0.00 | 0.00 | 67 | 1009.4 |
| 20260505230057 | 65 | 163 | 4.3 | 14.8 | 0.00 | 0.00 | 0.00 | 66 | 1008.9 |
| 20260505224547 | 66 | 122 | 5.2 | 9.6 | 0.00 | 0.00 | 0.00 | 65 | 1009.1 |
| 20260505223043 | 66 | 123 | 4.3 | 8.7 | 0.00 | 0.00 | 0.00 | 64 | 1009.1 |
| 20260505221546 | 67 | 148 | 4.3 | 12.2 | 0.00 | 0.00 | 0.00 | 63 | 1009.3 |
| 20260505220137 | 68 | 142 | 6.1 | 10.4 | 0.00 | 0.00 | 0.00 | 62 | 1009.1 |
| 20260505214533 | 69 | 184 | 2.6 | 10.4 | 0.00 | 0.00 | 0.00 | 60 | 1008.9 |
| 20260505213037 | 69 | 136 | 3.5 | 17.4 | 0.00 | 0.00 | 0.00 | 60 | 1008.9 |
| 20260505211537 | 70 | 131 | 5.2 | 11.3 | 0.00 | 0.00 | 0.00 | 59 | 1008.9 |
| 20260505210028 | 71 | 161 | 2.6 | 13.0 | 0.00 | 0.00 | 0.00 | 59 | 1008.8 |
| 20260505203136 | 71 | 210 | 5.2 | 12.2 | 0.00 | 0.00 | 0.00 | 58 | 1008.8 |